Selawik, AK

9:04 AM AKDT on June 29, 2017 (GMT -0800)
Selawik

Weather History for PASK - March, 2014

Change the Weather History Date:

Wednesday, March 19, 2014

  Actual Average Record
Temperature  
Mean Temperature -4 °F -  
Max Temperature 3 °F 6 °F 35 °F (1998)
Min Temperature -11 °F -5 °F -34 °F (1997)
Degree Days  
Heating Degree Days 69    
Moisture  
Dew Point -7 °F    
Average Humidity 87    
Maximum Humidity 100    
Minimum Humidity 71    
Precipitation  
Precipitation 0.00 in - - ()
Sea Level Pressure  
Sea Level Pressure 30.56 in    
Wind  
Wind Speed 10 mph (WSW)    
Max Wind Speed 17 mph    
Max Gust Speed 24 mph    
Visibility 9 miles    
Events      
Averages and records for this station are not official NWS values.
T = Trace of Precipitation, MM = Missing Value Source: NWS Daily Summary

Daily Weather History Graph

Daily Weather History Graph

Search for Another Location

Airport or City:

Trip Planner

Search our weather history database for the weather conditions in past years. The results will help you decide how hot, cold, wet, or windy it might be!

Date:

Astronomy

Mar. 19, 2014 Rise Set
Actual Time 8:42 AM AKDT 8:54 PM AKDT
Civil Twilight 7:50 AM AKDT 9:46 PM AKDT
Nautical Twilight 6:46 AM AKDT 10:51 PM AKDT
Astronomical Twilight 5:29 AM AKDT 12:09 AM AKDT
Moon 12:34 AM AKDT (3/19) 8:54 AM AKDT (3/19)
Length of Visible Light 13h 56m
Length of Day
12h 11m
Waning Gibbous, 90% of the Moon is Illuminated
Mar 19
Waning Gibbous
Mar 23
Last Quarter
Mar 30
New
Apr 7
First Quarter
Apr 14
Full

Hourly Weather History & Observations

Time (AKDT) Temp. Windchill Dew Point Humidity Pressure Visibility Wind Dir Wind Speed Gust Speed Precip Events Conditions
12:16 AM 3.2 °F -13.1 °F -0.4 °F 85% 30.36 in 5.0 mi West 11.5 mph - N/A   Overcast
12:36 AM 3.2 °F -15.3 °F -0.4 °F 85% 30.37 in 8.0 mi West 15.0 mph - N/A   Overcast
12:56 AM 3.2 °F -13.9 °F -0.4 °F 85% 30.37 in 4.0 mi West 12.7 mph - N/A   Overcast
1:16 AM 1.4 °F -16.9 °F -2.2 °F 85% 30.38 in 10.0 mi West 13.8 mph 20.7 mph N/A   Overcast
1:36 AM 1.4 °F -18.8 °F -2.2 °F 85% 30.37 in 10.0 mi West 17.3 mph 24.2 mph N/A   Scattered Clouds
1:56 AM 1.4 °F -16.9 °F -2.2 °F 85% 30.39 in 10.0 mi West 13.8 mph 21.9 mph N/A   Clear
2:16 AM -0.4 °F -18.4 °F -2.2 °F 92% 30.40 in 9.0 mi WSW 12.7 mph - N/A   Scattered Clouds
2:36 AM -2.2 °F -22.9 °F -5.8 °F 85% 30.40 in 10.0 mi West 16.1 mph - N/A   Partly Cloudy
2:56 AM -2.2 °F -23.5 °F -4.0 °F 92% 30.41 in 10.0 mi West 17.3 mph 24.2 mph N/A   Clear
3:16 AM -2.2 °F -23.5 °F -5.8 °F 85% 30.42 in 10.0 mi West 17.3 mph - N/A   Clear
3:36 AM -2.2 °F -22.2 °F -5.8 °F 85% 30.44 in 10.0 mi West 15.0 mph 20.7 mph N/A   Clear
3:56 AM -2.2 °F -21.5 °F -4.0 °F 92% 30.45 in 10.0 mi West 13.8 mph 17.3 mph N/A   Clear
4:16 AM -2.2 °F -21.5 °F -5.8 °F 85% 30.45 in 10.0 mi West 13.8 mph - N/A   Partly Cloudy
4:36 AM -4.0 °F -22.1 °F -7.6 °F 85% 30.46 in 10.0 mi West 11.5 mph - N/A   Partly Cloudy
4:56 AM -4.0 °F -22.1 °F -7.6 °F 85% 30.47 in 10.0 mi West 11.5 mph 18.4 mph N/A   Clear
5:16 AM -5.8 °F -19.9 °F -7.6 °F 92% 30.48 in 10.0 mi West 6.9 mph 16.1 mph N/A   Clear
5:36 AM -5.8 °F -19.9 °F -7.6 °F 92% 30.49 in 10.0 mi SSW 6.9 mph - N/A   Clear
5:56 AM -5.8 °F -18.4 °F -11.2 °F 77% 30.49 in 5.0 mi WSW 5.8 mph - N/A   Partly Cloudy
6:16 AM -7.6 °F -23.4 °F -9.4 °F 92% 30.50 in 3.0 mi WSW 8.1 mph - N/A   Mostly Cloudy
6:36 AM -7.6 °F -25.7 °F -9.4 °F 92% 30.50 in 2.5 mi WSW 10.4 mph - N/A   Overcast
6:56 AM -7.6 °F -22.1 °F -11.2 °F 84% 30.51 in 3.0 mi WSW 6.9 mph - N/A   Overcast
7:16 AM -7.6 °F -25.7 °F -11.2 °F 84% 30.52 in 5.0 mi West 10.4 mph - N/A   Scattered Clouds
7:36 AM -7.6 °F -27.5 °F -11.2 °F 84% 30.52 in 4.0 mi WSW 12.7 mph - N/A   Clear
7:56 AM -9.4 °F -27.9 °F -9.4 °F 100% 30.52 in 5.0 mi WSW 10.4 mph - N/A   Clear
8:16 AM -7.6 °F -26.6 °F -11.2 °F 84% 30.52 in 6.0 mi WSW 11.5 mph - N/A   Clear
8:36 AM -9.4 °F -26.8 °F -11.2 °F 92% 30.53 in 2.0 mi SW 9.2 mph - N/A   Scattered Clouds
8:56 AM -9.4 °F -22.7 °F -16.6 °F 71% 30.54 in 3.0 mi WSW 5.8 mph - N/A   Clear
9:16 AM -9.4 °F -28.9 °F -9.4 °F 100% 30.54 in 3.0 mi WSW 11.5 mph - N/A   Clear
9:36 AM -7.6 °F -27.5 °F -13.0 °F 77% 30.54 in 8.0 mi West 12.7 mph - N/A   Clear
9:56 AM -7.6 °F -27.5 °F -9.4 °F 92% 30.54 in 7.0 mi WSW 12.7 mph - N/A   Clear
10:16 AM -7.6 °F -26.6 °F -9.4 °F 92% 30.55 in 10.0 mi West 11.5 mph - N/A   Clear
10:36 AM -7.6 °F -24.6 °F -9.4 °F 92% 30.56 in 10.0 mi West 9.2 mph - N/A   Clear
10:56 AM -7.6 °F -24.6 °F -11.2 °F 84% 30.56 in 10.0 mi West 9.2 mph - N/A   Clear
11:16 AM -7.6 °F -24.6 °F -7.6 °F 100% 30.57 in 10.0 mi West 9.2 mph - N/A   Clear
11:36 AM -5.8 °F -21.2 °F -9.4 °F 84% 30.58 in 10.0 mi West 8.1 mph - N/A   Clear
11:56 AM -5.8 °F -22.4 °F -9.4 °F 84% 30.59 in 10.0 mi West 9.2 mph - N/A   Clear
12:16 PM -5.8 °F -23.4 °F -7.6 °F 92% 30.59 in 10.0 mi West 10.4 mph - N/A   Clear
12:36 PM -4.0 °F -21.2 °F -7.6 °F 85% 30.59 in 10.0 mi West 10.4 mph - N/A   Clear
12:56 PM -4.0 °F -20.2 °F -7.6 °F 85% 30.59 in 10.0 mi West 9.2 mph - N/A   Clear
1:16 PM -2.2 °F -16.8 °F -7.6 °F 78% 30.60 in 10.0 mi West 8.1 mph - N/A   Clear
1:36 PM -2.2 °F -15.6 °F -7.6 °F 78% 30.61 in 10.0 mi West 6.9 mph - N/A   Clear
1:56 PM -2.2 °F -16.8 °F -5.8 °F 85% 30.61 in 10.0 mi West 8.1 mph - N/A   Clear
2:16 PM -0.4 °F -14.7 °F -5.8 °F 78% 30.61 in 10.0 mi West 8.1 mph - N/A   Clear
2:36 PM -0.4 °F -13.4 °F -5.8 °F 78% 30.62 in 10.0 mi WSW 6.9 mph - N/A   Clear
2:56 PM -0.4 °F -13.4 °F -5.8 °F 78% 30.62 in 10.0 mi WSW 6.9 mph - N/A   Clear
3:16 PM -0.4 °F -14.7 °F -5.8 °F 78% 30.62 in 10.0 mi WSW 8.1 mph - N/A   Clear
3:36 PM -0.4 °F -13.4 °F -4.0 °F 85% 30.62 in 10.0 mi WSW 6.9 mph - N/A   Clear
3:56 PM 1.4 °F -9.9 °F -4.0 °F 78% 30.63 in 10.0 mi WSW 5.8 mph - N/A   Clear
4:16 PM 1.4 °F -11.3 °F -2.2 °F 85% 30.63 in 10.0 mi WSW 6.9 mph - N/A   Clear
4:36 PM 1.4 °F -8.3 °F -5.8 °F 72% 30.63 in 10.0 mi WSW 4.6 mph - N/A   Clear
4:56 PM 3.2 °F -4.2 °F -2.2 °F 78% 30.64 in 10.0 mi WNW 3.5 mph - N/A   Clear
5:16 PM 1.4 °F -6.2 °F -5.8 °F 72% 30.64 in 10.0 mi NW 3.5 mph - N/A   Clear
5:36 PM 1.4 °F -6.2 °F -4.0 °F 78% 30.64 in 10.0 mi WNW 3.5 mph - N/A   Clear
5:56 PM 1.4 °F - -2.2 °F 85% 30.64 in 10.0 mi Calm Calm - N/A   Clear
6:16 PM 1.4 °F - -5.8 °F 72% 30.65 in 10.0 mi Calm Calm - N/A   Clear
6:36 PM -0.4 °F - -2.2 °F 92% 30.65 in 10.0 mi Calm Calm - N/A   Clear
6:56 PM -0.4 °F - -2.2 °F 92% 30.65 in 10.0 mi Calm Calm - N/A   Clear
7:16 PM -0.4 °F -10.4 °F -2.2 °F 92% 30.65 in 10.0 mi East 4.6 mph - N/A   Clear
7:36 PM -2.2 °F -15.6 °F -5.8 °F 85% 30.65 in 10.0 mi East 6.9 mph - N/A   Clear
7:56 PM -4.0 °F -16.3 °F -4.0 °F 100% 30.65 in 10.0 mi East 5.8 mph - N/A   Clear
8:16 PM -5.8 °F -18.4 °F -7.6 °F 92% 30.65 in 10.0 mi East 5.8 mph - N/A   Clear
8:36 PM -5.8 °F -16.7 °F -7.6 °F 92% 30.66 in 10.0 mi ESE 4.6 mph - N/A   Clear
8:56 PM -5.8 °F -16.7 °F -7.6 °F 92% 30.66 in 10.0 mi ESE 4.6 mph - N/A   Clear
9:16 PM -7.6 °F -16.5 °F -9.4 °F 92% 30.66 in 10.0 mi ESE 3.5 mph - N/A   Clear
9:36 PM -7.6 °F -16.5 °F -7.6 °F 100% 30.67 in 10.0 mi East 3.5 mph - N/A   Clear
9:56 PM -9.4 °F -18.6 °F -9.4 °F 100% 30.66 in 10.0 mi ENE 3.5 mph - N/A   Clear
10:16 PM -11.2 °F -24.8 °F -14.8 °F 84% 30.67 in 10.0 mi NE 5.8 mph - N/A   Clear
10:36 PM -11.2 °F -26.4 °F -11.2 °F 100% 30.67 in 10.0 mi ENE 6.9 mph - N/A   Clear
10:56 PM -9.4 °F -25.6 °F -9.4 °F 100% 30.67 in 10.0 mi ENE 8.1 mph - N/A   Clear
11:16 PM -9.4 °F -25.6 °F -11.2 °F 92% 30.67 in 10.0 mi ENE 8.1 mph - N/A   Clear
11:36 PM -11.2 °F -27.8 °F -11.2 °F 100% 30.67 in 10.0 mi ENE 8.1 mph - N/A   Clear
11:56 PM -11.2 °F -23.0 °F -16.6 °F 77% 30.67 in 10.0 mi ENE 4.6 mph - N/A   Clear